カタログに戻る

ONEWEB-0406

運用中通信PO
NORAD 50486·PAYLOAD·🇬🇧 United Kingdom

打ち上げ Dec 27, 2021 から Baikonur Cosmodrome

Loading…

次のパス (今後24時間)

TLE

最新Source: CelesTrak SupGP

元期: Sep 14, 2026, 19:59 UTC

1 50486C 21132T   26257.83316389 -.00002755  00000+0 -69955-2 0  2578
2 50486  87.9162 317.6466 0002142 113.8089 358.8630 13.18688162    18

AllMySatでONEWEB-0406をリアルタイム追跡

Download on the App Store